<?xml version="1.0" encoding="UTF-8" standalone="no" ?>
<gpx xmlns="http://www.topografix.com/GPX/1/1" xmlns:xsi="http://www.w3.org/2001/XMLSchema-instance" xsi:schemaLocation="http://www.topografix.com/GPX/1/1 http://www.topografix.com/GPX/1/1/gpx.xsd" version="1.1" creator="VisuGPX - https://www.visugpx.com">
  <metadata>
    <name>vallée de la cance</name>
    <desc><![CDATA[depart depuis davezieux]]></desc>
  </metadata>
  <trk>
    <name><![CDATA[cance bis]]></name>
    <trkseg>
      <trkpt lat="45.24785" lon="4.71203">
        <ele>398</ele>
        <time>2007-03-31T10:06:39Z</time>
      </trkpt>
      <trkpt lat="45.24763" lon="4.71078">
        <ele>401</ele>
        <time>2007-03-31T10:06:39Z</time>
      </trkpt>
      <trkpt lat="45.24868" lon="4.70567">
        <ele>417</ele>
        <time>2007-03-31T10:06:39Z</time>
      </trkpt>
      <trkpt lat="45.24777" lon="4.70604">
        <ele>416</ele>
        <time>2007-03-31T10:06:39Z</time>
      </trkpt>
      <trkpt lat="45.24432" lon="4.70446">
        <ele>419</ele>
        <time>2007-03-31T10:06:39Z</time>
      </trkpt>
      <trkpt lat="45.24287" lon="4.70179">
        <ele>419</ele>
        <time>2007-03-31T10:06:39Z</time>
      </trkpt>
      <trkpt lat="45.24298" lon="4.70084">
        <ele>416</ele>
        <time>2007-03-31T10:06:39Z</time>
      </trkpt>
      <trkpt lat="45.24199" lon="4.69755">
        <ele>409</ele>
        <time>2007-03-31T10:06:39Z</time>
      </trkpt>
      <trkpt lat="45.24086" lon="4.69896">
        <ele>419</ele>
        <time>2007-03-31T10:06:39Z</time>
      </trkpt>
      <trkpt lat="45.23923" lon="4.6996">
        <ele>419</ele>
        <time>2007-03-31T10:06:39Z</time>
      </trkpt>
      <trkpt lat="45.23777" lon="4.7024">
        <ele>406</ele>
        <time>2007-03-31T10:06:39Z</time>
      </trkpt>
      <trkpt lat="45.23607" lon="4.70188">
        <ele>398</ele>
        <time>2007-03-31T10:06:39Z</time>
      </trkpt>
      <trkpt lat="45.23439" lon="4.70079">
        <ele>390</ele>
        <time>2007-03-31T10:06:39Z</time>
      </trkpt>
      <trkpt lat="45.23271" lon="4.69941">
        <ele>394</ele>
        <time>2007-03-31T10:06:39Z</time>
      </trkpt>
      <trkpt lat="45.23091" lon="4.69915">
        <ele>388</ele>
        <time>2007-03-31T10:06:39Z</time>
      </trkpt>
      <trkpt lat="45.22961" lon="4.70227">
        <ele>360</ele>
        <time>2007-03-31T10:06:39Z</time>
      </trkpt>
      <trkpt lat="45.22924" lon="4.70242">
        <ele>358</ele>
        <time>2007-03-31T10:06:39Z</time>
      </trkpt>
      <trkpt lat="45.2291" lon="4.702">
        <ele>360</ele>
        <time>2007-03-31T10:06:39Z</time>
      </trkpt>
      <trkpt lat="45.22874" lon="4.70192">
        <ele>357</ele>
        <time>2007-03-31T10:06:39Z</time>
      </trkpt>
      <trkpt lat="45.22821" lon="4.70222">
        <ele>351</ele>
        <time>2007-03-31T10:06:39Z</time>
      </trkpt>
      <trkpt lat="45.22648" lon="4.70227">
        <ele>325</ele>
        <time>2007-03-31T10:06:39Z</time>
      </trkpt>
      <trkpt lat="45.22515" lon="4.70368">
        <ele>321</ele>
        <time>2007-03-31T10:06:39Z</time>
      </trkpt>
      <trkpt lat="45.22423" lon="4.70634">
        <ele>319</ele>
        <time>2007-03-31T10:06:39Z</time>
      </trkpt>
      <trkpt lat="45.22318" lon="4.70639">
        <ele>327</ele>
        <time>2007-03-31T10:06:39Z</time>
      </trkpt>
      <trkpt lat="45.22258" lon="4.70691">
        <ele>338</ele>
        <time>2007-03-31T10:06:39Z</time>
      </trkpt>
      <trkpt lat="45.22151" lon="4.70661">
        <ele>354</ele>
        <time>2007-03-31T10:06:39Z</time>
      </trkpt>
      <trkpt lat="45.22117" lon="4.7078">
        <ele>362</ele>
        <time>2007-03-31T10:06:39Z</time>
      </trkpt>
      <trkpt lat="45.21669" lon="4.71099">
        <ele>390</ele>
        <time>2007-03-31T10:06:39Z</time>
      </trkpt>
      <trkpt lat="45.21622" lon="4.71304">
        <ele>388</ele>
        <time>2007-03-31T10:06:39Z</time>
      </trkpt>
      <trkpt lat="45.21627" lon="4.71594">
        <ele>381</ele>
        <time>2007-03-31T10:06:39Z</time>
      </trkpt>
      <trkpt lat="45.21616" lon="4.71673">
        <ele>378</ele>
        <time>2007-03-31T10:06:39Z</time>
      </trkpt>
      <trkpt lat="45.21583" lon="4.71754">
        <ele>371</ele>
        <time>2007-03-31T10:06:39Z</time>
      </trkpt>
      <trkpt lat="45.21583" lon="4.71948">
        <ele>361</ele>
        <time>2007-03-31T10:06:39Z</time>
      </trkpt>
      <trkpt lat="45.21483" lon="4.72109">
        <ele>363</ele>
        <time>2007-03-31T10:06:39Z</time>
      </trkpt>
      <trkpt lat="45.21375" lon="4.71997">
        <ele>360</ele>
        <time>2007-03-31T10:06:39Z</time>
      </trkpt>
      <trkpt lat="45.21313" lon="4.72045">
        <ele>362</ele>
        <time>2007-03-31T10:06:39Z</time>
      </trkpt>
      <trkpt lat="45.21252" lon="4.72065">
        <ele>351</ele>
        <time>2007-03-31T10:06:39Z</time>
      </trkpt>
      <trkpt lat="45.21187" lon="4.72052">
        <ele>334</ele>
        <time>2007-03-31T10:06:39Z</time>
      </trkpt>
      <trkpt lat="45.20972" lon="4.71893">
        <ele>306</ele>
        <time>2007-03-31T10:06:39Z</time>
      </trkpt>
      <trkpt lat="45.20907" lon="4.71897">
        <ele>294</ele>
        <time>2007-03-31T10:06:39Z</time>
      </trkpt>
      <trkpt lat="45.20907" lon="4.7198">
        <ele>290</ele>
        <time>2007-03-31T10:06:39Z</time>
      </trkpt>
      <trkpt lat="45.20882" lon="4.72001">
        <ele>280</ele>
        <time>2007-03-31T10:06:39Z</time>
      </trkpt>
      <trkpt lat="45.20896" lon="4.72072">
        <ele>273</ele>
        <time>2007-03-31T10:06:39Z</time>
      </trkpt>
      <trkpt lat="45.20787" lon="4.72026">
        <ele>252</ele>
        <time>2007-03-31T10:06:39Z</time>
      </trkpt>
      <trkpt lat="45.20822" lon="4.72094">
        <ele>262</ele>
        <time>2007-03-31T10:06:39Z</time>
      </trkpt>
      <trkpt lat="45.20727" lon="4.72125">
        <ele>259</ele>
        <time>2007-03-31T10:06:39Z</time>
      </trkpt>
      <trkpt lat="45.20671" lon="4.72218">
        <ele>267</ele>
        <time>2007-03-31T10:06:39Z</time>
      </trkpt>
      <trkpt lat="45.20541" lon="4.72193">
        <ele>245</ele>
        <time>2007-03-31T10:06:39Z</time>
      </trkpt>
      <trkpt lat="45.20542" lon="4.72426">
        <ele>241</ele>
        <time>2007-03-31T10:06:39Z</time>
      </trkpt>
      <trkpt lat="45.20581" lon="4.725">
        <ele>239</ele>
        <time>2007-03-31T10:06:39Z</time>
      </trkpt>
      <trkpt lat="45.20615" lon="4.72505">
        <ele>249</ele>
        <time>2007-03-31T10:06:39Z</time>
      </trkpt>
      <trkpt lat="45.2068" lon="4.72622">
        <ele>269</ele>
        <time>2007-03-31T10:06:39Z</time>
      </trkpt>
      <trkpt lat="45.20618" lon="4.72375">
        <ele>280</ele>
        <time>2007-03-31T10:06:39Z</time>
      </trkpt>
      <trkpt lat="45.20649" lon="4.72367">
        <ele>289</ele>
        <time>2007-03-31T10:06:39Z</time>
      </trkpt>
      <trkpt lat="45.2069" lon="4.72457">
        <ele>286</ele>
        <time>2007-03-31T10:06:39Z</time>
      </trkpt>
      <trkpt lat="45.20698" lon="4.72413">
        <ele>296</ele>
        <time>2007-03-31T10:06:39Z</time>
      </trkpt>
      <trkpt lat="45.20774" lon="4.72451">
        <ele>311</ele>
        <time>2007-03-31T10:06:39Z</time>
      </trkpt>
      <trkpt lat="45.2086" lon="4.72426">
        <ele>326</ele>
        <time>2007-03-31T10:06:39Z</time>
      </trkpt>
      <trkpt lat="45.21039" lon="4.72555">
        <ele>336</ele>
        <time>2007-03-31T10:06:39Z</time>
      </trkpt>
      <trkpt lat="45.2117" lon="4.72542">
        <ele>347</ele>
        <time>2007-03-31T10:06:39Z</time>
      </trkpt>
      <trkpt lat="45.21162" lon="4.72786">
        <ele>349</ele>
        <time>2007-03-31T10:06:39Z</time>
      </trkpt>
      <trkpt lat="45.21099" lon="4.72921">
        <ele>350</ele>
        <time>2007-03-31T10:06:39Z</time>
      </trkpt>
      <trkpt lat="45.21106" lon="4.73402">
        <ele>365</ele>
        <time>2007-03-31T10:06:39Z</time>
      </trkpt>
      <trkpt lat="45.21203" lon="4.73498">
        <ele>368</ele>
        <time>2007-03-31T10:06:39Z</time>
      </trkpt>
      <trkpt lat="45.21214" lon="4.7382">
        <ele>364</ele>
        <time>2007-03-31T10:06:39Z</time>
      </trkpt>
      <trkpt lat="45.21157" lon="4.74168">
        <ele>363</ele>
        <time>2007-03-31T10:06:39Z</time>
      </trkpt>
      <trkpt lat="45.21355" lon="4.74399">
        <ele>343</ele>
        <time>2007-03-31T10:06:39Z</time>
      </trkpt>
      <trkpt lat="45.21497" lon="4.74692">
        <ele>336</ele>
        <time>2007-03-31T10:06:39Z</time>
      </trkpt>
      <trkpt lat="45.21594" lon="4.74667">
        <ele>342</ele>
        <time>2007-03-31T10:06:39Z</time>
      </trkpt>
      <trkpt lat="45.21579" lon="4.74753">
        <ele>347</ele>
        <time>2007-03-31T10:06:39Z</time>
      </trkpt>
      <trkpt lat="45.2169" lon="4.74831">
        <ele>357</ele>
        <time>2007-03-31T10:06:39Z</time>
      </trkpt>
      <trkpt lat="45.21654" lon="4.75026">
        <ele>363</ele>
        <time>2007-03-31T10:06:39Z</time>
      </trkpt>
      <trkpt lat="45.21719" lon="4.75329">
        <ele>358</ele>
        <time>2007-03-31T10:06:39Z</time>
      </trkpt>
      <trkpt lat="45.21635" lon="4.75688">
        <ele>355</ele>
        <time>2007-03-31T10:06:39Z</time>
      </trkpt>
      <trkpt lat="45.21724" lon="4.75934">
        <ele>362</ele>
        <time>2007-03-31T10:06:39Z</time>
      </trkpt>
      <trkpt lat="45.21726" lon="4.76468">
        <ele>382</ele>
        <time>2007-03-31T10:06:39Z</time>
      </trkpt>
      <trkpt lat="45.21685" lon="4.76502">
        <ele>382</ele>
        <time>2007-03-31T10:06:39Z</time>
      </trkpt>
      <trkpt lat="45.21588" lon="4.7651">
        <ele>378</ele>
        <time>2007-03-31T10:06:39Z</time>
      </trkpt>
      <trkpt lat="45.2155" lon="4.76582">
        <ele>373</ele>
        <time>2007-03-31T10:06:39Z</time>
      </trkpt>
      <trkpt lat="45.21549" lon="4.76658">
        <ele>372</ele>
        <time>2007-03-31T10:06:39Z</time>
      </trkpt>
      <trkpt lat="45.21592" lon="4.76746">
        <ele>370</ele>
        <time>2007-03-31T10:06:39Z</time>
      </trkpt>
      <trkpt lat="45.21601" lon="4.76832">
        <ele>364</ele>
        <time>2007-03-31T10:06:39Z</time>
      </trkpt>
      <trkpt lat="45.21667" lon="4.76921">
        <ele>365</ele>
        <time>2007-03-31T10:06:39Z</time>
      </trkpt>
      <trkpt lat="45.21609" lon="4.771">
        <ele>353</ele>
        <time>2007-03-31T10:06:39Z</time>
      </trkpt>
      <trkpt lat="45.21627" lon="4.77273">
        <ele>345</ele>
        <time>2007-03-31T10:06:39Z</time>
      </trkpt>
      <trkpt lat="45.21598" lon="4.77373">
        <ele>347</ele>
        <time>2007-03-31T10:06:39Z</time>
      </trkpt>
      <trkpt lat="45.21801" lon="4.77376">
        <ele>363</ele>
        <time>2007-03-31T10:06:39Z</time>
      </trkpt>
      <trkpt lat="45.21932" lon="4.77624">
        <ele>363</ele>
        <time>2007-03-31T10:06:39Z</time>
      </trkpt>
      <trkpt lat="45.21971" lon="4.77625">
        <ele>366</ele>
        <time>2007-03-31T10:06:39Z</time>
      </trkpt>
      <trkpt lat="45.22019" lon="4.77796">
        <ele>365</ele>
        <time>2007-03-31T10:06:39Z</time>
      </trkpt>
      <trkpt lat="45.22084" lon="4.77812">
        <ele>368</ele>
        <time>2007-03-31T10:06:39Z</time>
      </trkpt>
      <trkpt lat="45.22165" lon="4.7779">
        <ele>370</ele>
        <time>2007-03-31T10:06:39Z</time>
      </trkpt>
      <trkpt lat="45.22257" lon="4.77794">
        <ele>366</ele>
        <time>2007-03-31T10:06:39Z</time>
      </trkpt>
      <trkpt lat="45.22185" lon="4.77702">
        <ele>374</ele>
        <time>2007-03-31T10:06:39Z</time>
      </trkpt>
      <trkpt lat="45.22232" lon="4.77618">
        <ele>378</ele>
        <time>2007-03-31T10:06:39Z</time>
      </trkpt>
      <trkpt lat="45.22364" lon="4.77547">
        <ele>381</ele>
        <time>2007-03-31T10:06:39Z</time>
      </trkpt>
      <trkpt lat="45.22461" lon="4.7744">
        <ele>387</ele>
        <time>2007-03-31T10:06:39Z</time>
      </trkpt>
      <trkpt lat="45.22937" lon="4.77251">
        <ele>402</ele>
        <time>2007-03-31T10:06:39Z</time>
      </trkpt>
      <trkpt lat="45.22993" lon="4.77189">
        <ele>401</ele>
        <time>2007-03-31T10:06:39Z</time>
      </trkpt>
      <trkpt lat="45.22888" lon="4.76952">
        <ele>401</ele>
        <time>2007-03-31T10:06:39Z</time>
      </trkpt>
      <trkpt lat="45.22836" lon="4.76858">
        <ele>401</ele>
        <time>2007-03-31T10:06:39Z</time>
      </trkpt>
      <trkpt lat="45.22829" lon="4.76746">
        <ele>396</ele>
        <time>2007-03-31T10:06:39Z</time>
      </trkpt>
      <trkpt lat="45.22669" lon="4.76561">
        <ele>376</ele>
        <time>2007-03-31T10:06:39Z</time>
      </trkpt>
      <trkpt lat="45.22794" lon="4.76308">
        <ele>366</ele>
        <time>2007-03-31T10:06:39Z</time>
      </trkpt>
      <trkpt lat="45.22784" lon="4.76133">
        <ele>371</ele>
        <time>2007-03-31T10:06:39Z</time>
      </trkpt>
      <trkpt lat="45.2324" lon="4.7607">
        <ele>336</ele>
        <time>2007-03-31T10:06:39Z</time>
      </trkpt>
      <trkpt lat="45.23254" lon="4.76134">
        <ele>328</ele>
        <time>2007-03-31T10:06:39Z</time>
      </trkpt>
      <trkpt lat="45.23489" lon="4.76211">
        <ele>275</ele>
        <time>2007-03-31T10:06:39Z</time>
      </trkpt>
      <trkpt lat="45.23531" lon="4.76149">
        <ele>270</ele>
        <time>2007-03-31T10:06:39Z</time>
      </trkpt>
      <trkpt lat="45.23556" lon="4.76214">
        <ele>251</ele>
        <time>2007-03-31T10:06:39Z</time>
      </trkpt>
      <trkpt lat="45.23507" lon="4.76317">
        <ele>278</ele>
        <time>2007-03-31T10:06:39Z</time>
      </trkpt>
      <trkpt lat="45.23565" lon="4.7631">
        <ele>260</ele>
        <time>2007-03-31T10:06:39Z</time>
      </trkpt>
      <trkpt lat="45.23659" lon="4.76152">
        <ele>238</ele>
        <time>2007-03-31T10:06:39Z</time>
      </trkpt>
      <trkpt lat="45.23717" lon="4.76294">
        <ele>256</ele>
        <time>2007-03-31T10:06:39Z</time>
      </trkpt>
      <trkpt lat="45.23701" lon="4.76383">
        <ele>242</ele>
        <time>2007-03-31T10:06:39Z</time>
      </trkpt>
      <trkpt lat="45.24" lon="4.76832">
        <ele>253</ele>
        <time>2007-03-31T10:06:39Z</time>
      </trkpt>
      <trkpt lat="45.24104" lon="4.76913">
        <ele>255</ele>
        <time>2007-03-31T10:06:39Z</time>
      </trkpt>
      <trkpt lat="45.2419" lon="4.76863">
        <ele>279</ele>
        <time>2007-03-31T10:06:39Z</time>
      </trkpt>
      <trkpt lat="45.24047" lon="4.76822">
        <ele>276</ele>
        <time>2007-03-31T10:06:39Z</time>
      </trkpt>
      <trkpt lat="45.23923" lon="4.76539">
        <ele>298</ele>
        <time>2007-03-31T10:06:39Z</time>
      </trkpt>
      <trkpt lat="45.23936" lon="4.76447">
        <ele>311</ele>
        <time>2007-03-31T10:06:39Z</time>
      </trkpt>
      <trkpt lat="45.23873" lon="4.76441">
        <ele>297</ele>
        <time>2007-03-31T10:06:39Z</time>
      </trkpt>
      <trkpt lat="45.23845" lon="4.76306">
        <ele>310</ele>
        <time>2007-03-31T10:06:39Z</time>
      </trkpt>
      <trkpt lat="45.2391" lon="4.76386">
        <ele>314</ele>
        <time>2007-03-31T10:06:39Z</time>
      </trkpt>
      <trkpt lat="45.23982" lon="4.76382">
        <ele>325</ele>
        <time>2007-03-31T10:06:39Z</time>
      </trkpt>
      <trkpt lat="45.24084" lon="4.76447">
        <ele>336</ele>
        <time>2007-03-31T10:06:39Z</time>
      </trkpt>
      <trkpt lat="45.24316" lon="4.76375">
        <ele>342</ele>
        <time>2007-03-31T10:06:39Z</time>
      </trkpt>
      <trkpt lat="45.24328" lon="4.76321">
        <ele>347</ele>
        <time>2007-03-31T10:06:39Z</time>
      </trkpt>
      <trkpt lat="45.24241" lon="4.76075">
        <ele>364</ele>
        <time>2007-03-31T10:06:39Z</time>
      </trkpt>
      <trkpt lat="45.24426" lon="4.7595">
        <ele>364</ele>
        <time>2007-03-31T10:06:39Z</time>
      </trkpt>
      <trkpt lat="45.24388" lon="4.75652">
        <ele>368</ele>
        <time>2007-03-31T10:06:39Z</time>
      </trkpt>
      <trkpt lat="45.24326" lon="4.75493">
        <ele>372</ele>
        <time>2007-03-31T10:06:39Z</time>
      </trkpt>
      <trkpt lat="45.24226" lon="4.75403">
        <ele>374</ele>
        <time>2007-03-31T10:06:39Z</time>
      </trkpt>
      <trkpt lat="45.24084" lon="4.75014">
        <ele>380</ele>
        <time>2007-03-31T10:06:39Z</time>
      </trkpt>
      <trkpt lat="45.23903" lon="4.74866">
        <ele>383</ele>
        <time>2007-03-31T10:06:39Z</time>
      </trkpt>
      <trkpt lat="45.23778" lon="4.74593">
        <ele>374</ele>
        <time>2007-03-31T10:06:39Z</time>
      </trkpt>
      <trkpt lat="45.23805" lon="4.74407">
        <ele>378</ele>
        <time>2007-03-31T10:06:39Z</time>
      </trkpt>
      <trkpt lat="45.23788" lon="4.74157">
        <ele>372</ele>
        <time>2007-03-31T10:06:39Z</time>
      </trkpt>
      <trkpt lat="45.23799" lon="4.73941">
        <ele>371</ele>
        <time>2007-03-31T10:06:39Z</time>
      </trkpt>
      <trkpt lat="45.23861" lon="4.7389">
        <ele>374</ele>
        <time>2007-03-31T10:06:39Z</time>
      </trkpt>
      <trkpt lat="45.24122" lon="4.74118">
        <ele>385</ele>
        <time>2007-03-31T10:06:39Z</time>
      </trkpt>
      <trkpt lat="45.24426" lon="4.74182">
        <ele>383</ele>
        <time>2007-03-31T10:06:39Z</time>
      </trkpt>
      <trkpt lat="45.24517" lon="4.73638">
        <ele>392</ele>
        <time>2007-03-31T10:06:39Z</time>
      </trkpt>
      <trkpt lat="45.24538" lon="4.73384">
        <ele>393</ele>
        <time>2007-03-31T10:06:39Z</time>
      </trkpt>
      <trkpt lat="45.24623" lon="4.73072">
        <ele>394</ele>
        <time>2007-03-31T10:06:39Z</time>
      </trkpt>
      <trkpt lat="45.24658" lon="4.72803">
        <ele>393</ele>
        <time>2007-03-31T10:06:39Z</time>
      </trkpt>
      <trkpt lat="45.2468" lon="4.72728">
        <ele>393</ele>
        <time>2007-03-31T10:06:39Z</time>
      </trkpt>
      <trkpt lat="45.2482" lon="4.72489">
        <ele>393</ele>
        <time>2007-03-31T10:06:39Z</time>
      </trkpt>
      <trkpt lat="45.24872" lon="4.72303">
        <ele>393</ele>
        <time>2007-03-31T10:06:39Z</time>
      </trkpt>
      <trkpt lat="45.24884" lon="4.72125">
        <ele>391</ele>
        <time>2007-03-31T10:06:39Z</time>
      </trkpt>
      <trkpt lat="45.24835" lon="4.71804">
        <ele>391</ele>
        <time>2007-03-31T10:06:39Z</time>
      </trkpt>
      <trkpt lat="45.24803" lon="4.71621">
        <ele>394</ele>
        <time>2007-03-31T10:06:39Z</time>
      </trkpt>
      <trkpt lat="45.24828" lon="4.71377">
        <ele>397</ele>
        <time>2007-03-31T10:06:39Z</time>
      </trkpt>
      <trkpt lat="45.24795" lon="4.71255">
        <ele>398</ele>
        <time>2007-03-31T10:06:39Z</time>
      </trkpt>
    </trkseg>
  </trk>
</gpx>